Tracking 19709 objects as of 19-Jun-2019
HD Live streaming from Space Station
objects crossing your sky now

ANIK C1 R/B(PAM-D)

Track ANIK C1 R/B(PAM-D) now!


NORAD ID: 15644
Int'l Code: 1985-028D
Perigee: 314.1 km
Apogee: 30,335.9 km
Inclination: 23.1 °
Period: 530.1 minutes
Semi major axis: 21695 km
RCS: 2.9686 m2 (large)
Launch date: April 12, 1985
Source: United States (US)
Launch site: AIR FORCE EASTERN TEST RANGE (AFETR)

Note: This is a ROCKET BODY
aabbcc
Your satellite tracking list
Your tracking list is empty




NASA's NSSDC Master Catalog

Two Line Element Set (TLE):
1 15644U 85028D   19169.55312159 -.00000093 +00000-0 +23711-3 0  9990
2 15644 023.0990 277.9799 6918760 009.0279 358.7193 02.71665156316420
Source of the keplerian elements: AFSPC